Terug naar catalogus

COSMOS 2482

ActiefNavigatiePO
NORAD 39057·PAYLOAD·🇷🇺 Russia

Gelanceerd Jan 15, 2013 vanaf Plesetsk Cosmodrome

Loading…

Volgende Passages (komende 24 uur)

TLE

VersSource: Space-Track

Epoch: Sep 14, 2026, 14:59 UTC

1 39057U 13001A   26257.62491037  .00000118  00000-0  78059-3 0  9995
2 39057  82.5033 164.7373 0026655 187.6415 172.4262 12.42998282619821

Volg COSMOS 2482 in realtime met AllMySat

Download on the App Store